Location: Bord�res
(43.2000°N, 0.2167°W)
Time: 13:13:04
(UTC+00:00)

Cosmos 1689 Rocket - Pass Details

Date: 03 March 2021
Orbit: 350 x 361 km, 97.5° (Epoch: 13 April)

Event Time Altitude Azimuth Distance (km) Brightness Sun altitude
Rises 18:56:43 0° 10° (N) 2,207 5.8 -12.5°
Reaches altitude 10° 18:58:39 10° 8° (N) 1,358 4.8 -12.8°
Maximum altitude 19:01:32 71° 284° (WNW) 391 2.2 -13.3°
Drops below altitude 10° 19:04:24 10° 200° (SSW) 1,353 5.0 -13.9°
Sets 19:06:20 0° 198° (SSW) 2,198 6.1 -14.2°
